GW3580 Weather Reports


Display with metric or nautical units.
time (UTC)temp
F
wind
direction
speed
MPH
gust
MPH
rain 1hr
in
rain 24hr
in
rain mn
in
humidity
%
barometer
mb
20260901143616 59 251 1.0 2.0 0.00 0.00 0.00 70 1014.7
20260901143112 58 12 1.0 2.0 0.00 0.00 0.00 71 1014.3
20260901142608 57 36 0.0 0.0 0.00 0.00 0.00 72 1014.3
20260901142107 57 258 2.0 4.0 0.00 0.00 0.00 73 1014.2
20260901141602 57 58 0.0 0.0 0.00 0.00 0.00 73 1014.3
20260901141057 57 261 2.0 2.0 0.00 0.00 0.00 74 1013.9
20260901140555 57 269 2.0 2.0 0.00 0.00 0.00 74 1014.0
20260901140055 57 38 0.0 0.0 0.00 0.00 0.00 75 1013.9
20260901135555 57 266 1.0 2.0 0.00 0.00 0.00 74 1013.9
20260901135050 57 276 0.0 1.0 0.00 0.00 0.00 74 1013.8
20260901134547 57 247 3.0 4.0 0.00 0.00 0.00 74 1013.9
20260901134047 57 271 3.0 4.0 0.00 0.00 0.00 74 1013.8
20260901133546 57 280 3.0 6.0 0.00 0.00 0.00 74 1013.8
20260901133044 57 252 2.0 2.0 0.00 0.00 0.00 74 1013.8
20260901132539 57 254 4.0 5.0 0.00 0.00 0.00 74 1013.7
20260901132038 57 264 2.0 2.0 0.00 0.00 0.00 74 1013.5
20260901131532 57 281 0.0 1.0 0.00 0.00 0.00 74 1013.3
20260901131023 57 249 1.0 1.0 0.00 0.00 0.00 73 1013.3
20260901130522 57 267 3.0 4.0 0.00 0.00 0.00 73 1013.1
20260901130021 57 248 2.0 2.0 0.00 0.00 0.00 73 1013.1
20260901125520 58 258 2.0 4.0 0.00 0.00 0.00 73 1012.9
20260901125015 58 237 1.0 2.0 0.00 0.00 0.00 72 1012.8
20260901124509 58 246 2.0 2.0 0.00 0.00 0.00 72 1013.1
20260901124004 58 288 2.0 2.0 0.00 0.00 0.00 72 1012.6
20260901123459 58 280 1.0 1.0 0.00 0.00 0.00 72 1012.8
20260901122957 58 147 0.0 1.0 0.00 0.00 0.00 72 1012.8
20260901122456 58 353 1.0 1.0 0.00 0.00 0.00 72 1012.6
20260901121951 58 14 4.0 6.0 0.00 0.00 0.00 72 1012.7
20260901121446 58 66 0.0 1.0 0.00 0.00 0.00 72 1012.8
20260901120941 58 14 0.0 0.0 0.00 0.00 0.00 71 1012.8
20260901120441 58 124 0.0 0.0 0.00 0.00 0.00 72 1012.6
20260901115937 59 50 0.0 0.0 0.00 0.00 0.00 72 1013.0
20260901115437 59 200 1.0 1.0 0.00 0.00 0.00 71 1012.8
20260901114934 59 219 1.0 2.0 0.00 0.00 0.00 72 1012.8
20260901114429 58 278 0.0 1.0 0.00 0.00 0.00 71 1013.0
20260901113927 58 339 1.0 1.0 0.00 0.00 0.00 71 1012.7
20260901113426 58 33 0.0 0.0 0.00 0.00 0.00 71 1012.6
20260901112922 58 69 0.0 0.0 0.00 0.00 0.00 71 1012.7
20260901112417 58 58 0.0 1.0 0.00 0.00 0.00 71 1012.6
20260901111912 59 55 0.0 0.0 0.00 0.00 0.00 70 1012.4
20260901111410 59 82 1.0 1.0 0.00 0.00 0.00 70 1012.2
20260901110909 59 57 0.0 1.0 0.00 0.00 0.00 69 1012.4
20260901110405 60 48 0.0 1.0 0.00 0.00 0.00 69 1012.4
20260901105901 60 359 1.0 1.0 0.00 0.00 0.00 69 1012.4
20260901105356 60 16 0.0 0.0 0.00 0.00 0.00 68 1012.4
20260901104852 60 74 0.0 0.0 0.00 0.00 0.00 68 1012.2
20260901104347 60 229 0.0 1.0 0.00 0.00 0.00 68 1012.4
20260901103842 60 256 1.0 2.0 0.00 0.00 0.00 69 1012.3
20260901103337 61 23 1.0 1.0 0.00 0.00 0.00 68 1012.0
20260901102832 61 245 2.0 4.0 0.00 0.00 0.00 67 1012.0
20260901102332 61 243 1.0 2.0 0.00 0.00 0.00 67 1012.1
20260901101827 61 242 2.0 2.0 0.00 0.00 0.00 67 1011.9
20260901101326 61 254 2.0 2.0 0.00 0.00 0.00 67 1012.0
20260901100821 61 249 2.0 2.0 0.00 0.00 0.00 67 1012.0
20260901100316 61 273 3.0 4.0 0.00 0.00 0.00 66 1011.8
20260901095814 61 282 1.0 1.0 0.00 0.00 0.00 66 1011.8
20260901095312 61 270 4.0 5.0 0.00 0.00 0.00 65 1011.6
20260901094807 62 260 1.0 2.0 0.00 0.00 0.00 66 1011.9
20260901094302 62 252 1.0 2.0 0.00 0.00 0.00 66 1011.9
20260901093756 62 230 3.0 4.0 0.00 0.00 0.00 65 1011.8
20260901093255 62 283 3.0 4.0 0.00 0.00 0.00 66 1011.9
20260901092751 62 258 2.0 2.0 0.00 0.00 0.00 66 1012.0
20260901092248 62 261 2.0 2.0 0.00 0.00 0.00 66 1011.8
20260901091742 62 259 4.0 5.0 0.00 0.00 0.00 65 1012.0
20260901091237 62 284 4.0 4.0 0.00 0.00 0.00 66 1011.8
20260901090732 62 262 3.0 4.0 0.00 0.00 0.00 66 1012.0
20260901090227 62 262 2.0 2.0 0.00 0.00 0.00 66 1011.7
20260901085723 63 209 3.0 4.0 0.00 0.00 0.00 66 1011.7
20260901085218 63 271 3.0 4.0 0.00 0.00 0.00 66 1011.9
20260901084715 63 254 2.0 2.0 0.00 0.00 0.00 65 1011.7
20260901084211 63 298 5.0 6.0 0.00 0.00 0.00 65 1011.7
20260901083705 63 226 3.0 4.0 0.00 0.00 0.00 65 1011.7
20260901083204 63 241 2.0 2.0 0.00 0.00 0.00 65 1011.8
20260901082703 64 247 4.0 5.0 0.00 0.00 0.00 64 1011.6
20260901082159 64 246 2.0 4.0 0.00 0.00 0.00 64 1011.7
20260901081655 64 265 2.0 2.0 0.00 0.00 0.00 64 1011.6
20260901081154 64 21 1.0 1.0 0.00 0.00 0.00 64 1011.8
20260901080649 64 348 1.0 2.0 0.00 0.00 0.00 63 1011.6
20260901080148 64 120 2.0 2.0 0.00 0.00 0.00 63 1011.5
20260901075643 64 190 1.0 1.0 0.00 0.00 0.00 63 1011.7
20260901075143 65 252 3.0 4.0 0.00 0.00 0.00 63 1011.4
20260901074642 65 69 0.0 1.0 0.00 0.00 0.00 63 1011.5
20260901074137 65 251 1.0 2.0 0.00 0.00 0.00 62 1011.5
20260901073634 65 219 3.0 4.0 0.00 0.00 0.00 63 1011.6
20260901073129 65 230 2.0 2.0 0.00 0.00 0.00 62 1011.3
20260901072624 65 251 3.0 5.0 0.00 0.00 0.00 63 1011.6
20260901072119 65 256 3.0 5.0 0.00 0.00 0.00 62 1011.2
20260901071614 66 282 1.0 2.0 0.00 0.00 0.00 62 1011.3
20260901071113 66 260 3.0 4.0 0.00 0.00 0.00 62 1011.1
20260901070607 66 243 4.0 5.0 0.00 0.00 0.00 62 1011.2
20260901070103 66 244 3.0 4.0 0.00 0.00 0.00 61 1011.1
20260901065556 66 232 3.0 4.0 0.00 0.00 0.00 61 1010.9
20260901065051 66 228 4.0 5.0 0.00 0.00 0.00 60 1011.0
20260901064549 66 254 2.0 2.0 0.00 0.00 0.00 60 1011.1
20260901064044 67 245 5.0 6.0 0.00 0.00 0.00 59 1011.1
20260901063541 67 249 3.0 5.0 0.00 0.00 0.00 59 1011.0
20260901063037 67 267 3.0 4.0 0.00 0.00 0.00 59 1011.0
20260901062532 67 225 3.0 4.0 0.00 0.00 0.00 59 1010.6
20260901062028 67 233 5.0 6.0 0.00 0.00 0.00 58 1010.6
20260901061524 68 292 5.0 8.0 0.00 0.00 0.00 57 1010.8
20260901061019 68 257 3.0 4.0 0.00 0.00 0.00 57 1010.9
20260901060513 68 267 2.0 2.0 0.00 0.00 0.00 56 1010.5
20260901060008 68 242 3.0 4.0 0.00 0.00 0.00 56 1010.5
20260901055504 69 260 5.0 6.0 0.00 0.00 0.00 55 1010.8
20260901055001 69 217 2.0 4.0 0.00 0.00 0.00 54 1010.6
20260901054457 69 263 3.0 4.0 0.00 0.00 0.00 53 1010.3
20260901053953 69 285 4.0 5.0 0.00 0.00 0.00 53 1010.4
20260901053448 70 300 5.0 6.0 0.00 0.00 0.00 52 1010.2
20260901052943 70 260 6.0 7.0 0.00 0.00 0.00 51 1010.5
20260901052439 70 263 5.0 6.0 0.00 0.00 0.00 51 1010.4
20260901051932 71 262 3.0 5.0 0.00 0.00 0.00 50 1010.4
20260901051428 71 231 6.0 7.0 0.00 0.00 0.00 49 1010.2
20260901050927 71 238 4.0 5.0 0.00 0.00 0.00 49 1010.0
20260901050423 72 273 4.0 4.0 0.00 0.00 0.00 48 1010.2
20260901045922 72 242 5.0 6.0 0.00 0.00 0.00 47 1010.0
20260901045417 72 247 3.0 4.0 0.00 0.00 0.00 46 1010.0
20260901044907 73 242 5.0 6.0 0.00 0.00 0.00 45 1009.8
20260901044403 73 265 5.0 6.0 0.00 0.00 0.00 45 1009.6
20260901043859 73 245 3.0 6.0 0.00 0.00 0.00 45 1009.7
20260901043355 73 248 3.0 4.0 0.00 0.00 0.00 45 1009.6
20260901042855 73 297 1.0 1.0 0.00 0.00 0.00 44 1009.5
20260901042349 73 248 3.0 4.0 0.00 0.00 0.00 43 1009.5
20260901041844 74 259 2.0 2.0 0.00 0.00 0.00 42 1009.3
20260901041339 74 250 1.0 2.0 0.00 0.00 0.00 42 1009.3
20260901040834 74 246 2.0 2.0 0.00 0.00 0.00 41 1009.4
20260901040333 75 282 2.0 4.0 0.00 0.00 0.00 40 1009.3
20260901035832 75 254 2.0 4.0 0.00 0.00 0.00 39 1009.1
20260901035331 75 239 3.0 4.0 0.00 0.00 0.00 38 1009.3
20260901034830 76 215 1.0 2.0 0.00 0.00 0.00 39 1009.2
20260901034325 76 229 2.0 2.0 0.00 0.00 0.00 39 1008.9
20260901033820 76 267 3.0 4.0 0.00 0.00 0.00 39 1008.9
20260901033319 77 261 1.0 1.0 0.00 0.00 0.00 40 1008.9
20260901032818 77 245 2.0 2.0 0.00 0.00 0.00 38 1008.7
20260901032317 77 274 2.0 2.0 0.00 0.00 0.00 38 1008.9
20260901031812 78 234 3.0 4.0 0.00 0.00 0.00 37 1008.7
20260901031308 78 247 5.0 6.0 0.00 0.00 0.00 36 1008.7
20260901030808 78 261 3.0 4.0 0.00 0.00 0.00 36 1008.4
20260901030303 79 274 5.0 6.0 0.00 0.00 0.00 36 1008.6
20260901025802 79 273 4.0 5.0 0.00 0.00 0.00 37 1008.5
20260901025257 79 274 4.0 5.0 0.00 0.00 0.00 37 1008.5
20260901024752 80 278 2.0 2.0 0.00 0.00 0.00 39 1008.6
20260901024251 80 128 0.0 0.0 0.00 0.00 0.00 38 1008.4
20260901023749 81 243 1.0 1.0 0.00 0.00 0.00 38 1008.0
20260901023244 81 248 1.0 1.0 0.00 0.00 0.00 36 1008.4
20260901022740 82 273 2.0 2.0 0.00 0.00 0.00 36 1008.3
20260901022235 82 246 1.0 1.0 0.00 0.00 0.00 36 1008.3
20260901021730 83 254 1.0 1.0 0.00 0.00 0.00 34 1008.2
20260901021226 83 247 1.0 1.0 0.00 0.00 0.00 33 1008.1
20260901020721 84 271 1.0 1.0 0.00 0.00 0.00 33 1008.1
20260901020217 84 230 2.0 2.0 0.00 0.00 0.00 32 1008.1
20260901015711 85 249 1.0 2.0 0.00 0.00 0.00 31 1008.1
20260901015207 86 237 2.0 2.0 0.00 0.00 0.00 30 1008.0
20260901014706 86 271 5.0 6.0 0.00 0.00 0.00 29 1008.0
20260901014203 87 251 8.0 11.0 0.00 0.00 0.00 28 1008.0
20260901013658 87 261 5.0 6.0 0.00 0.00 0.00 27 1008.1
20260901013154 88 261 4.0 5.0 0.00 0.00 0.00 28 1008.0
20260901012649 89 279 3.0 5.0 0.00 0.00 0.00 27 1007.9
20260901012144 89 271 2.0 2.0 0.00 0.00 0.00 26 1007.8
20260901011640 89 259 2.0 2.0 0.00 0.00 0.00 25 1007.9
20260901011139 89 254 3.0 4.0 0.00 0.00 0.00 27 1007.9
20260901010633 91 261 2.0 2.0 0.00 0.00 0.00 26 1008.2
20260901010132 91 39 0.0 0.0 0.00 0.00 0.00 24 1007.8
20260901005627 91 39 1.0 1.0 0.00 0.00 0.00 24 1007.9
20260901005122 91 49 0.0 1.0 0.00 0.00 0.00 25 1008.0
20260901004621 91 263 3.0 4.0 0.00 0.00 0.00 24 1008.1
20260901004116 91 262 0.0 1.0 0.00 0.00 0.00 26 1008.1
20260901003611 90 301 1.0 1.0 0.00 0.00 0.00 25 1007.9
20260901003109 91 255 3.0 4.0 0.00 0.00 0.00 23 1008.1
20260901002604 91 261 4.0 5.0 0.00 0.00 0.00 24 1008.1
20260901002059 91 33 0.0 0.0 0.00 0.00 0.00 22 1008.2
20260901001554 91 271 3.0 4.0 0.00 0.00 0.00 22 1008.2
20260901001049 91 232 3.0 5.0 0.00 0.00 0.00 21 1008.4
20260901000544 92 248 3.0 4.0 0.00 0.00 0.00 21 1008.4
20260901000039 91 259 2.0 2.0 0.00 0.00 0.00 21 1008.3
20260831235532 91 281 5.0 7.0 0.00 0.00 0.00 20 1008.4
20260831235028 91 274 3.0 4.0 0.00 0.00 0.00 20 1008.4
20260831234523 91 267 3.0 4.0 0.00 0.00 0.00 21 1008.5
20260831234019 91 249 4.0 5.0 0.00 0.00 0.00 20 1008.2
20260831233514 93 296 3.0 4.0 0.00 0.00 0.00 20 1008.4
20260831233009 93 45 1.0 1.0 0.00 0.00 0.00 21 1008.5
20260831232504 93 325 0.0 0.0 0.00 0.00 0.00 21 1008.3
20260831232000 92 20 0.0 1.0 0.00 0.00 0.00 21 1008.5
20260831231457 93 50 1.0 2.0 0.00 0.00 0.00 21 1008.5
20260831230952 92 254 2.0 2.0 0.00 0.00 0.00 21 1008.5
20260831230447 91 359 1.0 1.0 0.00 0.00 0.00 21 1008.5
20260831225946 92 243 3.0 4.0 0.00 0.00 0.00 20 1008.6
20260831225443 92 343 1.0 1.0 0.00 0.00 0.00 20 1008.9
20260831224937 91 223 0.0 0.0 0.00 0.00 0.00 20 1008.8
20260831224437 91 234 3.0 4.0 0.00 0.00 0.00 21 1008.8
20260831223932 92 251 1.0 1.0 0.00 0.00 0.00 19 1008.9
20260831223427 90 157 1.0 1.0 0.00 0.00 0.00 20 1009.1
20260831222924 91 266 3.0 5.0 0.00 0.00 0.00 20 1009.2
20260831222420 91 273 2.0 2.0 0.00 0.00 0.00 21 1009.5
20260831221915 91 261 2.0 2.0 0.00 0.00 0.00 20 1009.2
20260831221411 90 335 3.0 4.0 0.00 0.00 0.00 20 1009.3
20260831220906 90 241 4.0 5.0 0.00 0.00 0.00 23 1009.5
20260831220401 90 84 3.0 4.0 0.00 0.00 0.00 20 1009.4
20260831215856 90 271 2.0 2.0 0.00 0.00 0.00 20 1009.6
20260831215352 90 353 1.0 2.0 0.00 0.00 0.00 22 1009.5
20260831214848 89 151 3.0 4.0 0.00 0.00 0.00 22 1009.6
20260831214345 89 266 4.0 5.0 0.00 0.00 0.00 21 1009.6
20260831213846 90 277 5.0 6.0 0.00 0.00 0.00 22 1009.7
20260831213342 89 47 0.0 1.0 0.00 0.00 0.00 24 1009.7
20260831212837 89 333 2.0 2.0 0.00 0.00 0.00 22 1009.8
20260831212334 88 247 1.0 1.0 0.00 0.00 0.00 24 1009.9
20260831211832 89 246 2.0 4.0 0.00 0.00 0.00 23 1010.0
20260831211328 88 319 2.0 2.0 0.00 0.00 0.00 25 1010.1
20260831210827 89 296 1.0 1.0 0.00 0.00 0.00 25 1010.1
20260831210323 88 225 0.0 1.0 0.00 0.00 0.00 25 1010.2
20260831205818 87 357 0.0 0.0 0.00 0.00 0.00 23 1010.1
20260831205314 86 267 3.0 4.0 0.00 0.00 0.00 23 1010.2
20260831204813 87 281 5.0 6.0 0.00 0.00 0.00 23 1010.3
20260831204313 86 308 2.0 2.0 0.00 0.00 0.00 24 1010.2
20260831203812 87 263 4.0 5.0 0.00 0.00 0.00 25 1010.2
20260831203307 86 219 1.0 1.0 0.00 0.00 0.00 28 1010.3
20260831202805 87 334 1.0 1.0 0.00 0.00 0.00 28 1010.4
20260831202300 86 107 1.0 1.0 0.00 0.00 0.00 29 1010.6
20260831201754 86 257 1.0 1.0 0.00 0.00 0.00 26 1010.8
20260831201253 86 247 3.0 5.0 0.00 0.00 0.00 29 1010.8
20260831200749 86 255 3.0 5.0 0.00 0.00 0.00 27 1010.9
20260831200244 86 349 1.0 1.0 0.00 0.00 0.00 29 1010.9
20260831195739 85 310 1.0 1.0 0.00 0.00 0.00 30 1010.9
20260831195235 85 256 3.0 4.0 0.00 0.00 0.00 29 1011.0
20260831194729 86 21 1.0 1.0 0.00 0.00 0.00 30 1011.1
20260831194226 85 39 2.0 2.0 0.00 0.00 0.00 31 1011.0
20260831193719 84 249 4.0 5.0 0.00 0.00 0.00 31 1011.0
20260831193215 84 307 1.0 2.0 0.00 0.00 0.00 31 1011.1
20260831192710 84 229 1.0 1.0 0.00 0.00 0.00 31 1011.2
20260831192205 83 224 2.0 2.0 0.00 0.00 0.00 31 1011.1
20260831191701 83 225 1.0 1.0 0.00 0.00 0.00 32 1011.1
20260831191157 82 243 4.0 5.0 0.00 0.00 0.00 32 1011.4
20260831190652 82 234 1.0 1.0 0.00 0.00 0.00 33 1011.4
20260831190151 82 27 1.0 2.0 0.00 0.00 0.00 33 1011.4
20260831185646 80 337 2.0 2.0 0.00 0.00 0.00 34 1011.3
20260831185142 80 258 2.0 2.0 0.00 0.00 0.00 34 1011.2
20260831184641 80 234 3.0 4.0 0.00 0.00 0.00 34 1011.5
20260831184137 80 255 2.0 4.0 0.00 0.00 0.00 35 1011.7
20260831183637 80 271 2.0 2.0 0.00 0.00 0.00 35 1011.5
20260831183136 79 250 2.0 4.0 0.00 0.00 0.00 35 1011.3
20260831182635 80 234 0.0 1.0 0.00 0.00 0.00 36 1011.6
20260831182131 79 254 4.0 4.0 0.00 0.00 0.00 35 1011.5
20260831181626 79 19 1.0 2.0 0.00 0.00 0.00 36 1011.4
20260831181125 80 244 2.0 2.0 0.00 0.00 0.00 35 1011.6
20260831180621 78 218 1.0 1.0 0.00 0.00 0.00 38 1011.4
20260831180116 78 264 1.0 1.0 0.00 0.00 0.00 37 1011.5
20260831175610 77 9 1.0 1.0 0.00 0.00 0.00 38 1011.7
20260831175108 77 74 1.0 1.0 0.00 0.00 0.00 38 1011.7
20260831174607 76 127 1.0 2.0 0.00 0.00 0.00 40 1011.5
20260831174102 77 283 2.0 2.0 0.00 0.00 0.00 40 1011.3
20260831173600 76 339 1.0 1.0 0.00 0.00 0.00 42 1011.5
20260831173057 76 38 0.0 1.0 0.00 0.00 0.00 42 1011.2
20260831172551 75 236 2.0 2.0 0.00 0.00 0.00 42 1011.6
20260831172051 74 258 1.0 1.0 0.00 0.00 0.00 43 1011.4
20260831171547 75 221 3.0 4.0 0.00 0.00 0.00 43 1011.3
20260831171044 75 248 2.0 2.0 0.00 0.00 0.00 44 1011.6
20260831170539 74 11 1.0 1.0 0.00 0.00 0.00 44 1011.4
20260831170037 73 39 2.0 4.0 0.00 0.00 0.00 47 1011.4
20260831165537 73 233 2.0 2.0 0.00 0.00 0.00 48 1011.4
20260831165034 72 69 2.0 2.0 0.00 0.00 0.00 49 1011.3
20260831164530 71 344 1.0 2.0 0.00 0.00 0.00 50 1011.3
20260831164025 71 263 2.0 2.0 0.00 0.00 0.00 51 1011.3
20260831163520 71 37 0.0 1.0 0.00 0.00 0.00 51 1011.3
20260831163015 71 41 0.0 1.0 0.00 0.00 0.00 50 1011.1
20260831162514 70 30 1.0 1.0 0.00 0.00 0.00 52 1011.5
20260831162012 69 229 1.0 1.0 0.00 0.00 0.00 53 1011.3
20260831161509 69 222 1.0 1.0 0.00 0.00 0.00 54 1011.1
20260831161005 69 265 1.0 1.0 0.00 0.00 0.00 55 1011.3
20260831160504 68 230 3.0 4.0 0.00 0.00 0.00 55 1011.3
20260831155959 68 267 3.0 4.0 0.00 0.00 0.00 55 1011.1
20260831155454 68 279 2.0 2.0 0.00 0.00 0.00 56 1011.1
20260831154949 67 252 1.0 2.0 0.00 0.00 0.00 56 1011.1
20260831154446 67 248 2.0 2.0 0.00 0.00 0.00 56 1011.0
20260831153944 67 283 2.0 2.0 0.00 0.00 0.00 56 1011.1
20260831153440 67 231 2.0 2.0 0.00 0.00 0.00 57 1011.0
20260831152937 66 286 1.0 1.0 0.00 0.00 0.00 59 1010.8
20260831152432 66 275 2.0 2.0 0.00 0.00 0.00 61 1011.0
20260831151927 65 29 0.0 1.0 0.00 0.00 0.00 64 1010.8
20260831151426 65 303 1.0 2.0 0.00 0.00 0.00 64 1010.8
20260831150921 64 283 1.0 1.0 0.00 0.00 0.00 65 1011.0
20260831150411 64 295 0.0 1.0 0.00 0.00 0.00 66 1011.0
20260831145910 64 309 1.0 2.0 0.00 0.00 0.00 65 1010.9
20260831145406 65 311 1.0 1.0 0.00 0.00 0.00 64 1010.6
20260831144902 64 326 0.0 0.0 0.00 0.00 0.00 65 1010.8
20260831144358 64 19 0.0 0.0 0.00 0.00 0.00 65 1010.5
20260831143853 64 20 0.0 0.0 0.00 0.00 0.00 64 1010.5